Simultaneous Nadir Overpasses (SNOs) Predictions

Prediction of SNOs between NOAA-19 and NPP Satellite Orbit:

Table of predicted SNOs for the next 14.0 days since TLE Epoch: 10/26/2013
Index Date (NOAA-19) Time (NOAA-19) Lat,Lon (NOAA-19) SZA (NOAA-19 ) Date (NPP) Time (NPP) Lat,Lon (NPP) SZA (NPP ) Distance(km) Time Diff (sec)
1 10/30/2013 01:32:22 80.98, 103.10 97.83 10/30/2013 01:33:35 80.98, 103.14 97.79 0.75 73
2 10/30/2013 02:23:26 -80.96, -89.11 82.24 10/30/2013 02:24:19 -80.96, -89.15 82.26 0.81 53
3 10/30/2013 03:14:25 80.96, 78.06 97.79 10/30/2013 03:15:04 80.96, 78.11 97.76 0.91 39
4 10/30/2013 04:05:29 -80.95,-114.15 82.28 10/30/2013 04:05:48 -80.95,-114.19 82.29 0.69 19
5 10/30/2013 04:56:27 80.94, 53.38 97.70 10/30/2013 04:56:32 80.93, 53.44 97.68 1.07 5
6 10/30/2013 05:47:32 -80.93,-139.20 82.32 10/30/2013 05:47:17 -80.93,-139.23 82.31 0.58 15
7 10/30/2013 06:38:30 80.92, 28.33 97.65 10/30/2013 06:38:01 80.92, 28.40 97.66 1.23 29
8 10/30/2013 07:29:34 -80.90,-163.89 82.42 10/30/2013 07:28:45 -80.90,-163.91 82.39 0.48 49




NCC Satellite Simultaneous Nadir Overpasses (SNOs) Prediction Service
